STARLINK-1606, 46144

Orbit data source: Space-Track

STARLINK-1606, 46144 is a payload satellite owned by SpaceX/Seattle (US) in LEO that was launched on Tue, 18 Aug 2020 UTC via an FALCON 9 launch vehicle from the Air Force Eastern Test Range (AFETR). Payloads include a variety of satellites, spacecraft, and rockets equipped with specific instruments for various scientific and technological missions. These include communications satellites like Starlink; space stations such as the ISS; scientific satellites like the Hubble; Earth observation satellites from companies like Planet Labs, Umbra, and HawkEye 360; GPS; miniature CubeSats for education and research; and military/defense satellites.

Loading next visibility...
STARLINK-1606 details
Identifier
46144, 2020-057AD
Orbit
LEO
Last TLE update14 hours ago
Origin
Flag of USSpaceX/Seattle (US)
ManufacturerSpaceX/Seattle
MissionOperational Commercial Communications
Bus & MotorSTARLINK, Unknown motor
Mass260 kg wet, ~248 kg dry
Launch date (UTC)
2020-08-18 (4 years ago)
Launch vehicle
FALCON 9
Launch site
Air Force Eastern Test Range (AFETR)
Object type
Payload
Rocket body
Debris
Shape & HBRBox + 1 Pan, 8.86 m
Radar Cross Section13.562 m², Large (>1 m²)

Expand to show TLE details & history

TLE from 14 hours ago
0 STARLINK-1606
1 46144U 20057AD  24360.99064215 -.00002476  00000-0 -14746-3 0  9990
2 46144  53.0551 106.0111 0001464  94.3437 265.7719 15.06378082228475
Epoch: 2024-12-25T23:46Z
Definitive object data (Epoch: 2024-12-25T23:46:31.481Z)
Latitude-0.00006°
Longitude14.40343°
Altitude548.233 km
Speed7.589 km/s
True Right ascension07h 04m 02s
True Declination0° 00' 00"
Sunlit
Object was in full shadow at TLE epoch
Visualization TLE readout
Latitude-52.76374°
Longitude-88.43617°
Altitude566.612 km
Speed7.577 km/s
Apparent Right ascension00h 39m 30s
Apparent Declination-46° 36' 06"
Sunlit
Object is in daylight
Visualization observer readout
Local Sidereal Time13:02:32
Azimuth149.837° SSE
Elevation-82.113°
Doppler factor1
Orbital elements
Apogee altitude548.563 km
Perigee altitude546.535 km
Semi-major axis6,925.686 km
Eccentricity0.0001464
Inclination53.0551°
RAAN106.0111°
Arg. of periapsis94.3437°
True anomaly265.75517°
Mean anomaly265.7719°
Eccentric anomaly265.76353°
Mean motion3.76573 °/min
BSTAR-0.00014746
Orbital period95.6 mins
Loading maneuver chart data...
Loading historical data...
Loading historical data...
Loading historical data...
Loading historical data...
Loading historical data...
Loading historical data...
Loading historical data...

STARLINK-1606 Visibility forecast

Observer location: undefined°, undefined

Span
Click to sort rows by Start time (UTC) header in descending order
Start Az.
Max El. time (UTC)
Max El. Az.
Max El.
End time (UTC)
End Az.
4 mins2024-12-26 14:31:49.559Z345.867° N2024-12-26 14:33:49.559Z18.907° NNE14.949°2024-12-26 14:35:49.559Z49.132° ENE
5 mins2024-12-26 16:11:49.559Z333.888° NNW2024-12-26 16:13:49.559Z31.162° NE34.962°2024-12-26 16:16:49.559Z101.521° ESE
5 mins2024-12-26 17:50:49.559Z277.564° WNW2024-12-26 17:52:49.559Z240.278° WSW23.731°2024-12-26 17:55:49.559Z179.964° S
6 mins2024-12-27 09:23:49.559Z206.587° SW2024-12-27 09:25:49.559Z156.958° SSE39.345°2024-12-27 09:29:49.559Z58.391° ENE
5 mins2024-12-27 11:03:49.559Z290.001° WNW2024-12-27 11:05:49.559Z332.364° NNW24.268°2024-12-27 11:08:49.559Z27.973° NE
|